EHI
5 3 0 0 0 0 0 0 0 0 0 0 0 0 0 0 0 0 0 0 0 0 0 0 0 0 0 0 0 0 0 0 0 0 0 0 0 0 0 0 0 0 0
13 7 1 0 0 0 0 0 0 0 0 0 0 0 0 0 0 0 0 0 0 0 0 0 0 0 0 0 0 0 0 0 0 0 0 0 0 0 0 0 0 0 0
25 14 3 1 0 0 0 0 0 0 0 0 0 0 0 0 0 0 0 0 0 0 0 0 0 0 0 0 0 0 0 0 0 0 0 0 0 0 0 0 0 0 0
30 18 6 2 1 1 0 0 0 0 0 0 0 0 0 0 0 0 0 0 0 0 0 0 0 0 0 0 0 0 0 0 0 0 0 0 0 0 0 0 0 0 0
30 22 13 8 6 4 2 0 0 0 0 0 0 0 0 0 0 0 0 0 0 0 0 0 0 0 0 0 0 0 0 0 0 0 0 0 0 0 0 0 0 0 0
37 37 34 26 20 14 7 2 0 0 0 0 0 0 0 0 0 0 0 0 0 0 0 0 0 0 0 0 0 0 0 0 0 0 0 0 0 0 0 0 0 0 0
59 65 64 54 42 30 18 7 2 1 1 1 0 0 0 0 0 0 0 0 0 0 0 0 0 0 0 0 0 0 0 0 0 0 0 0 0 0 0 0 0 0 0
71 75 76 69 58 46 33 20 9 4 3 3 1 0 0 0 0 0 0 0 0 0 0 0 0 0 0 0 0 0 0 0 0 0 0 0 0 0 0 0 0 0 0
48 49 51 49 47 44 39 30 19 11 8 6 2 0 0 0 0 0 0 0 0 0 0 0 0 0 0 0 0 0 0 0 0 0 0 0 0 0 0 0 0 0 0
14 14 15 17 20 24 26 26 22 15 9 6 3 1 1 0 0 0 0 0 0 0 0 0 0 0 0 0 0 0 0 0 0 0 0 0 0 0 0 0 0 0 0
1 0 0 1 4 7 10 12 12 9 7 5 3 1 0 0 0 0 0 0 0 0 0 0 0 0 0 0 0 0 0 0 0 0 0 0 0 0 0 0 0 0 0
0 0 0 0 0 1 2 3 2 2 4 5 4 1 0 0 0 0 0 0 0 0 0 0 0 0 0 0 0 0 0 0 0 0 0 0 0 0 0 0 0 0 0
0 0 0 0 0 0 0 0 0 0 2 3 3 2 0 0 0 0 0 0 0 0 0 0 0 0 0 0 0 0 0 0 0 0 0 0 0 0 0 0 0 0 0
0 0 0 0 0 0 0 0 0 0 0 1 1 1 0 0 0 0 0 0 0 0 0 0 0 0 0 0 0 0 0 0 0 0 0 0 0 0 0 0 0 0 0
0 0 0 0 0 0 0 0 0 0 0 0 0 0 0 0 0 0 0 0 0 0 0 0 0 0 0 0 0 0 0 0 0 0 0 0 0 0 0 0 0 0 0
0 0 0 0 0 0 0 0 0 0 0 0 0 0 0 0 0 0 0 0 0 0 0 0 0 0 0 0 0 0 0 0 0 0 0 0 0 0 0 0 0 0 0
0 0 0 0 0 0 0 0 0 0 0 0 0 0 0 0 0 0 0 0 0 0 0 0 0 0 0 0 0 0 0 0 0 0 0 0 0 0 0 0 0 0 0
0 0 0 0 0 0 0 0 0 0 0 0 0 0 0 0 0 0 0 0 0 0 0 0 0 0 0 0 0 0 0 0 0 0 0 0 0 0 0 0 0 0 0
0 0 0 0 0 0 0 0 0 0 0 0 0 0 0 0 0 0 0 0 0 0 0 0 0 0 0 0 0 0 0 0 0 0 0 0 0 0 0 0 0 0 0
0 0 0 0 0 0 0 0 0 0 0 0 0 0 0 0 0 0 0 0 0 0 0 0 0 0 0 0 0 0 0 0 0 0 0 0 0 0 0 0 0 0 0
0 0 0 0 0 0 0 0 0 0 0 0 0 0 0 0 0 0 0 0 0 0 0 0 0 0 0 0 0 0 0 0 0 0 0 0 0 0 0 0 0 0 0
0 0 0 0 0 0 0 0 0 0 0 0 0 0 0 0 0 0 0 0 0 0 0 0 0 0 0 0 0 0 0 0 0 0 0 0 0 0 0 0 0 0 0
0 0 0 0 0 0 0 0 0 0 0 0 0 0 0 0 0 0 0 0 0 0 0 0 0 0 0 0 0 0 0 0 0 0 0 0 0 0 0 0 0 0 0
0 0 0 0 0 0 0 0 0 0 0 0 0 0 0 0 0 0 0 0 0 0 0 0 0 0 0 0 0 0 0 0 0 0 0 0 0 0 0 0 0 0 0
0 0 0 0 0 0 0 0 0 0 0 0 0 0 0 0 0 0 0 0 0 0 0 0 0 0 0 0 0 0 0 0 0 0 0 0 0 0 0 0 0 0 0
0 0 0 0 0 0 0 0 0 0 0 0 0 0 0 0 0 0 0 0 0 0 0 0 0 0 0 0 0 0 0 0 0 0 0 0 0 0 0 0 0 0 0
Wind_Speed
8 7 6 5 5 5 4 4 5 5 6 7 7 8 8 8 8 8 7 7 6 3 4 5 7 7 6 7 7 8 8 7 6 4 5 7 10 8 7 6 5 5 6
9 8 7 5 5 5 5 5 6 6 7 7 8 8 9 9 9 8 8 7 6 4 4 6 8 6 9 8 7 9 8 9 8 7 6 6 10 9 9 7 5 4 3
10 9 8 8 7 6 5 5 6 7 7 8 8 9 9 9 9 9 8 8 8 8 7 8 10 10 10 9 10 10 8 8 7 6 6 5 5 7 8 7 7 5 5
10 10 9 8 7 7 6 6 7 8 8 8 8 8 9 9 9 10 10 11 11 11 11 11 12 12 12 11 10 11 9 9 8 7 7 7 6 6 8 8 7 7 6
10 10 9 8 7 7 6 7 8 8 8 8 8 8 8 7 8 9 9 10 11 11 12 12 12 11 11 9 7 9 10 8 8 8 8 8 8 7 9 8 7 7 7
9 8 7 7 7 7 7 8 8 9 9 9 9 9 8 7 6 6 8 9 10 11 11 12 11 11 13 13 13 11 9 10 10 10 9 10 12 11 8 8 8 7 6
7 6 7 7 8 8 8 8 9 9 9 9 10 9 10 9 7 8 9 8 9 9 10 10 8 8 10 10 13 15 13 13 12 11 11 13 11 11 11 11 10 9 6
3 4 5 6 7 7 8 8 9 8 9 9 9 10 9 8 9 8 8 10 10 9 9 10 9 9 9 9 9 10 11 12 13 13 11 9 6 7 10 10 9 8 5
3 3 2 3 5 7 8 8 8 7 8 8 8 9 9 8 9 8 8 8 8 9 8 7 8 8 7 7 8 7 7 7 8 10 5 1 4 7 8 6 7 8 7
6 5 4 2 2 5 6 7 6 7 7 6 7 7 8 7 7 7 9 7 7 6 5 5 5 5 5 8 8 6 6 5 5 6 7 6 7 9 12 10 8 8 7
7 7 6 5 3 1 3 4 5 6 6 7 7 6 5 4 5 5 8 7 5 4 4 4 4 5 4 5 6 3 1 2 3 4 5 6 6 6 9 9 8 7 7
6 7 7 7 5 4 2 1 3 5 6 7 7 6 5 4 4 5 7 8 6 4 3 3 4 6 5 5 3 2 2 2 3 3 4 4 4 5 5 7 7 7 6
6 6 6 6 5 5 3 3 3 4 4 5 6 6 6 5 5 6 7 7 6 3 2 6 6 7 7 6 4 4 4 3 3 3 4 4 4 5 5 4 5 6 6
6 5 5 6 6 6 4 3 3 3 4 4 5 5 4 4 4 4 5 6 7 5 5 8 8 6 4 4 6 6 4 3 3 3 2 2 3 4 4 4 4 4 4
4 4 5 6 6 6 6 5 4 5 4 2 2 2 2 3 1 1 3 4 5 5 7 6 6 6 6 5 4 4 4 4 4 3 3 3 3 4 4 5 5 5 6
4 4 4 4 4 4 5 6 10 9 9 8 8 5 4 4 2 1 1 2 5 6 4 4 4 4 4 4 4 5 5 4 4 4 4 4 4 4 4 4 5 6 7
4 3 3 3 3 3 2 3 5 5 8 10 9 8 7 5 3 3 5 6 6 3 3 2 2 1 2 2 2 3 3 3 3 3 4 4 4 4 5 5 6 6 7
3 3 2 2 1 1 2 2 2 3 4 4 6 8 7 7 8 9 9 7 3 1 1 0 1 1 2 3 3 3 3 3 4 4 4 4 5 5 5 5 6 7 7
1 1 2 2 1 1 1 1 2 3 4 3 3 4 5 6 7 5 1 1 2 2 1 1 2 2 2 3 3 3 4 4 4 4 5 5 5 5 6 6 6 7 7
2 3 2 1 2 2 1 2 3 3 4 3 3 3 2 2 2 2 1 1 0 1 1 2 2 3 3 3 4 4 4 4 5 5 5 5 5 5 6 7 6 6 6
3 4 3 2 1 1 2 3 3 3 3 3 3 4 4 2 2 2 1 0 1 1 1 1 2 2 3 3 4 4 5 5 5 5 5 5 5 5 5 5 5 5 5
4 4 3 2 2 1 2 2 3 3 4 4 3 3 0 1 2 2 1 1 0 1 1 1 2 2 2 3 3 4 4 5 5 5 5 5 5 5 5 5 5 4 4
4 4 4 3 2 3 2 3 3 3 3 4 3 3 2 1 1 2 2 1 1 1 1 2 2 2 2 2 3 3 4 5 4 4 5 5 5 5 5 5 6 5 5
5 5 4 4 3 3 3 3 3 4 4 4 4 3 3 2 2 3 2 2 2 2 2 2 3 4 5 4 3 3 3 4 5 4 6 5 5 4 4 4 5 5 4
5 5 4 4 4 4 4 4 4 4 4 3 3 3 3 3 3 3 3 3 3 4 5 5 4 5 7 7 6 6 7 7 6 5 4 4 4 4 4 4 4 4 4
6 5 4 3 4 4 4 4 4 4 4 3 3 3 3 3 3 3 3 4 4 4 5 5 7 8 9 7 8 9 9 8 6 5 4 3 3 2 2 3 4 4 4
Wind_Direction
190 192 195 191 187 188 192 190 192 190 186 186 179 173 163 159 156 148 144 147 156 184 231 246 245 235 226 221 222 228 235 238 236 210 161 173 178 190 171 204 180 200 141
189 191 200 190 190 201 193 191 190 189 192 196 185 179 171 165 161 156 153 152 157 185 234 257 257 243 235 230 223 226 228 233 227 211 168 197 194 190 183 191 197 205 181
184 190 196 197 200 209 204 193 196 192 194 200 197 189 183 178 176 176 174 176 187 202 217 237 251 244 235 230 226 230 229 228 228 213 173 174 198 196 191 195 203 197 201
185 192 203 206 204 210 208 202 204 200 198 200 197 196 191 187 190 192 194 199 204 209 216 226 237 240 241 238 231 232 226 220 218 214 181 173 179 195 196 196 198 194 205
192 201 207 210 208 211 206 208 209 208 208 203 196 198 197 199 205 205 206 211 216 219 222 227 233 237 248 253 248 238 222 216 213 213 203 188 183 179 199 197 201 191 198
204 214 212 217 211 214 212 211 209 207 212 206 207 206 203 207 189 205 233 230 229 231 233 233 232 228 234 235 243 250 242 225 218 217 215 213 206 199 188 187 193 190 197
212 218 215 216 216 217 213 211 209 208 208 211 215 213 215 207 179 202 222 245 243 245 246 242 232 227 222 225 221 223 231 240 247 244 232 231 225 197 184 188 197 200 208
232 239 230 224 221 217 214 212 211 209 203 207 212 214 219 210 190 210 214 240 246 244 243 242 236 226 214 217 215 216 221 219 224 236 247 251 240 191 187 196 201 208 203
27 343 295 245 230 219 216 215 211 208 205 205 208 211 213 205 188 206 219 239 244 244 241 237 234 225 193 207 219 221 230 230 221 230 267 27 135 168 184 194 187 187 197
37 25 18 358 252 231 226 219 206 206 208 201 204 210 214 213 174 199 229 241 239 233 229 224 218 240 184 200 223 221 228 224 211 206 206 179 183 185 187 202 193 205 210
37 37 37 33 18 311 246 218 200 199 200 195 193 192 199 201 168 203 235 253 246 233 216 212 183 172 184 198 245 239 213 181 190 208 198 190 193 192 194 216 216 220 226
44 45 44 37 32 34 44 133 179 183 184 180 176 171 177 184 196 197 225 245 283 247 222 191 144 150 169 186 212 110 111 160 169 175 178 181 187 189 193 207 222 216 235
44 45 44 48 48 45 60 98 126 153 161 167 172 172 174 177 179 200 220 220 232 252 107 86 116 146 162 175 164 160 180 196 186 190 196 194 191 191 185 191 210 221 228
36 33 29 33 46 54 56 75 110 136 152 162 169 173 175 181 191 199 203 187 182 179 144 127 128 139 160 133 159 183 197 189 204 207 202 191 178 180 179 173 181 187 202
30 36 39 48 50 54 56 37 31 53 37 43 100 140 169 179 112 325 262 200 187 172 159 164 167 169 175 179 186 191 193 186 199 204 201 194 196 197 190 180 181 182 197
29 37 42 57 68 74 88 82 50 54 58 53 43 32 67 47 15 263 207 110 116 145 186 182 181 189 194 193 192 191 199 205 208 208 212 210 210 215 212 193 194 202 211
42 44 49 52 71 90 107 123 120 94 76 68 61 53 49 41 54 111 125 125 131 172 222 184 177 198 221 232 238 239 224 210 213 220 229 232 230 227 223 214 209 216 225
61 68 49 60 52 88 94 82 98 126 122 95 71 58 56 63 81 102 121 130 126 198 255 190 188 210 227 237 232 233 240 233 233 235 235 239 240 237 233 231 226 226 231
86 76 68 62 57 81 89 91 89 89 97 103 105 86 75 87 92 94 150 155 144 171 204 241 254 255 252 253 252 250 246 244 244 246 246 245 247 245 241 238 236 237 239
117 73 14 48 117 116 112 102 98 104 109 106 99 96 130 161 131 124 106 66 153 197 224 241 251 261 264 265 264 264 263 257 253 252 256 254 252 250 253 251 244 239 236
159 147 180 215 116 92 94 97 104 111 107 102 90 72 8 54 90 102 114 177 275 281 284 292 298 290 284 280 275 268 267 270 267 264 265 260 254 250 249 251 249 244 239
176 173 181 170 148 125 107 118 123 122 120 117 110 115 340 4 62 72 73 63 25 337 315 279 267 271 276 275 274 270 267 265 266 264 261 258 254 251 249 243 237 232 228
179 174 176 168 157 145 170 138 126 120 120 119 118 122 132 102 79 64 62 54 38 31 330 306 303 299 293 288 279 269 270 271 271 271 264 255 247 242 240 241 239 232 221
173 174 172 162 160 163 156 138 126 120 118 122 127 125 120 112 90 68 54 38 27 26 14 355 354 351 350 343 326 310 298 298 292 275 262 254 246 242 237 240 242 239 235
170 166 163 155 153 156 152 148 139 130 127 123 112 103 90 78 71 56 39 35 34 38 39 34 22 17 12 14 6 351 338 323 303 292 276 263 254 242 232 232 231 226 216
167 163 158 154 158 160 160 159 145 136 130 121 112 104 95 80 69 58 44 35 37 45 44 41 30 24 13 5 357 348 342 334 320 297 279 274 268 257 242 235 228 221 213